SBONWEB Weather Reports


Display with metric or nautical units.
time (UTC)temp
F
wind
direction
speed
MPH
gust
MPH
rain 1hr
in
rain 24hr
in
rain mn
in
humidity
%
barometer
mb
20260904231803 71 0 0.0 0.0 0.00 0.00 0.00 63 1018.5
20260904230903 71 0 0.0 0.0 0.00 0.00 0.00 63 1018.3
20260904230004 70 0 0.0 0.0 0.00 0.00 0.00 62 1018.4
20260904225403 70 0 0.0 0.0 0.00 0.00 0.00 62 1018.6
20260904224503 70 0 0.0 0.0 0.00 0.00 0.00 63 1018.7
20260904223603 70 0 0.0 0.0 0.00 0.00 0.00 64 1018.7
20260904222703 70 0 0.0 0.0 0.00 0.00 0.00 64 1018.6
20260904221803 71 0 0.0 0.0 0.00 0.00 0.00 64 1018.6
20260904220903 71 0 0.0 0.0 0.00 0.00 0.00 65 1018.6
20260904220004 72 0 0.0 0.0 0.00 0.00 0.00 65 1018.6
20260904215403 72 0 0.0 0.0 0.00 0.00 0.00 65 1018.7
20260904214503 71 0 0.0 0.0 0.00 0.00 0.00 66 1018.7
20260904213819 71 0 0.0 0.0 0.00 0.00 0.00 68 1018.7
20260904212918 71 0 0.0 0.0 0.00 0.00 0.00 67 1018.8
20260904211803 71 0 0.0 0.0 0.00 0.00 0.00 67 1019.0
20260904210904 72 0 0.0 0.0 0.00 0.00 0.00 67 1018.8
20260904210003 72 0 0.0 0.0 0.00 0.00 0.00 68 1019.0
20260904205403 72 0 0.0 0.0 0.00 0.00 0.00 69 1019.1
20260904204503 73 0 0.0 0.0 0.00 0.00 0.00 67 1019.0
20260904203603 73 0 0.0 0.0 0.00 0.00 0.00 63 1019.1
20260904202704 73 0 0.0 0.0 0.00 0.00 0.00 68 1019.2
20260904202017 73 0 0.0 0.0 0.00 0.00 0.00 67 1019.2
20260904200904 73 0 0.0 0.0 0.00 0.00 0.00 71 1019.3
20260904200003 74 0 0.0 0.0 0.00 0.00 0.00 73 1019.2
20260904195403 74 0 0.0 0.0 0.00 0.00 0.00 73 1019.1
20260904194503 74 0 0.0 0.0 0.00 0.00 0.00 74 1019.0
20260904193603 74 0 0.0 0.0 0.00 0.00 0.00 74 1019.0
20260904192703 74 0 0.0 0.0 0.00 0.00 0.00 73 1018.8
20260904191804 75 0 0.0 0.0 0.00 0.00 0.00 72 1018.7
20260904190903 75 0 0.0 0.0 0.00 0.00 0.00 71 1018.4
20260904190004 75 0 0.0 0.0 0.00 0.00 0.00 71 1018.4
20260904185403 76 0 0.0 0.0 0.00 0.00 0.00 71 1018.5
20260904184718 76 0 0.0 0.0 0.00 0.00 0.00 70 1018.3
20260904183603 76 0 0.0 0.0 0.00 0.00 0.00 70 1018.3
20260904182703 77 0 0.0 0.0 0.00 0.00 0.00 69 1018.3
20260904181804 78 0 0.0 0.0 0.00 0.00 0.00 69 1018.3
20260904180903 78 0 0.0 0.0 0.00 0.00 0.00 67 1018.3
20260904180003 79 0 0.0 0.0 0.00 0.00 0.00 65 1018.3
20260904175404 80 0 0.0 0.0 0.00 0.00 0.00 63 1018.3
20260904174503 82 0 0.0 0.0 0.00 0.00 0.00 61 1018.3
20260904173603 83 169 1.0 1.0 0.00 0.00 0.00 58 1018.3
20260904172703 84 169 1.0 1.0 0.00 0.00 0.00 57 1018.1
20260904171803 86 168 0.0 2.0 0.00 0.00 0.00 56 1018.0
20260904170904 86 168 1.0 2.0 0.00 0.00 0.00 52 1018.1
20260904170003 86 163 1.0 4.0 0.00 0.00 0.00 54 1018.2
20260904165404 86 153 1.0 4.0 0.00 0.00 0.00 50 1018.2
20260904164503 86 149 1.0 3.0 0.00 0.00 0.00 50 1018.2
20260904163603 87 193 1.0 4.0 0.00 0.00 0.00 52 1018.2
20260904162703 88 187 1.0 4.0 0.00 0.00 0.00 48 1018.2
20260904161803 89 172 1.0 4.0 0.00 0.00 0.00 47 1018.3
20260904160903 90 190 1.0 3.0 0.00 0.00 0.00 49 1018.3
20260904160218 89 164 2.0 4.0 0.00 0.00 0.00 48 1018.3
20260904155403 89 159 2.0 4.0 0.00 0.00 0.00 46 1018.5
20260904154503 89 147 2.0 3.0 0.00 0.00 0.00 44 1018.6
20260904153603 89 145 2.0 5.0 0.00 0.00 0.00 44 1018.7
20260904152704 90 161 1.0 5.0 0.00 0.00 0.00 42 1018.8
20260904151803 90 172 2.0 4.0 0.00 0.00 0.00 43 1018.8
20260904150903 89 171 2.0 4.0 0.00 0.00 0.00 45 1018.8
20260904150003 89 151 2.0 6.0 0.00 0.00 0.00 43 1018.8
20260904145403 88 144 2.0 6.0 0.00 0.00 0.00 44 1018.8
20260904144503 89 140 2.0 6.0 0.00 0.00 0.00 43 1018.9
20260904143818 89 161 3.0 6.0 0.00 0.00 0.00 45 1019.0
20260904142703 88 134 2.0 8.0 0.00 0.00 0.00 46 1018.9
20260904141804 89 160 2.0 6.0 0.00 0.00 0.00 45 1019.1
20260904140903 89 165 2.0 6.0 0.00 0.00 0.00 44 1019.0
20260904140217 88 123 2.0 6.0 0.00 0.00 0.00 46 1019.0
20260904135617 88 115 3.0 6.0 0.00 0.00 0.00 47 1019.0
20260904134503 88 156 3.0 7.0 0.00 0.00 0.00 46 1019.1
20260904133817 88 110 3.0 7.0 0.00 0.00 0.00 45 1019.1
20260904132703 87 100 4.0 9.0 0.00 0.00 0.00 49 1019.1
20260904131803 87 115 4.0 9.0 0.00 0.00 0.00 47 1019.3
20260904130903 87 151 2.0 7.0 0.00 0.00 0.00 48 1019.3
20260904130004 87 150 2.0 6.0 0.00 0.00 0.00 48 1019.4
20260904125403 87 145 3.0 7.0 0.00 0.00 0.00 48 1019.5
20260904124718 87 177 4.0 8.0 0.00 0.00 0.00 48 1019.6
20260904123604 87 147 3.0 9.0 0.00 0.00 0.00 47 1019.8
20260904122703 86 137 3.0 8.0 0.00 0.00 0.00 49 1020.0
20260904121803 86 100 3.0 8.0 0.00 0.00 0.00 50 1020.0
20260904120903 85 127 3.0 8.0 0.00 0.00 0.00 49 1020.0
20260904120003 86 96 3.0 8.0 0.00 0.00 0.00 49 1020.1
20260904115403 85 91 3.0 8.0 0.00 0.00 0.00 50 1020.1
20260904114503 85 151 2.0 7.0 0.00 0.00 0.00 49 1020.2
20260904113603 85 133 3.0 6.0 0.00 0.00 0.00 49 1020.3
20260904112703 85 95 5.0 10.0 0.00 0.00 0.00 49 1020.2
20260904111803 85 100 2.0 10.0 0.00 0.00 0.00 49 1020.3
20260904110904 86 121 1.0 3.0 0.00 0.00 0.00 48 1020.3
20260904110003 85 122 2.0 3.0 0.00 0.00 0.00 49 1020.4
20260904105403 85 120 2.0 4.0 0.00 0.00 0.00 52 1020.4
20260904104504 84 135 3.0 6.0 0.00 0.00 0.00 51 1020.5
20260904103603 84 133 2.0 7.0 0.00 0.00 0.00 50 1020.5
20260904102703 84 130 2.0 6.0 0.00 0.00 0.00 49 1020.7
20260904101803 84 76 2.0 6.0 0.00 0.00 0.00 51 1020.8
20260904100903 83 132 2.0 6.0 0.00 0.00 0.00 52 1020.9
20260904100003 83 125 2.0 7.0 0.00 0.00 0.00 50 1021.0
20260904095403 83 131 2.0 4.0 0.00 0.00 0.00 50 1021.0
20260904094717 83 137 2.0 4.0 0.00 0.00 0.00 51 1021.1
20260904093604 83 134 2.0 5.0 0.00 0.00 0.00 50 1021.3
20260904092703 83 149 1.0 4.0 0.00 0.00 0.00 50 1021.2
20260904091803 83 50 1.0 3.0 0.00 0.00 0.00 49 1021.3
20260904090903 82 166 1.0 3.0 0.00 0.00 0.00 50 1021.2
20260904090003 81 96 2.0 6.0 0.00 0.00 0.00 50 1021.2
20260904085403 81 96 2.0 6.0 0.00 0.00 0.00 49 1021.2
20260904084503 80 176 2.0 5.0 0.00 0.00 0.00 52 1021.1
20260904083604 80 93 3.0 6.0 0.00 0.00 0.00 50 1021.2
20260904082703 81 61 1.0 6.0 0.00 0.00 0.00 50 1021.1
20260904081803 80 28 1.0 4.0 0.00 0.00 0.00 53 1021.1
20260904080903 80 242 1.0 4.0 0.00 0.00 0.00 53 1021.0
20260904080004 80 61 1.0 3.0 0.00 0.00 0.00 53 1021.1
20260904075403 79 21 2.0 2.0 0.00 0.00 0.00 55 1021.1
20260904074503 79 35 2.0 3.0 0.00 0.00 0.00 54 1021.1
20260904073603 78 317 2.0 4.0 0.00 0.00 0.00 58 1021.1
20260904072703 77 330 2.0 4.0 0.00 0.00 0.00 59 1021.1
20260904071803 76 7 3.0 4.0 0.00 0.00 0.00 59 1021.0
20260904070903 75 3 4.0 7.0 0.00 0.00 0.00 59 1020.9
20260904070216 75 13 4.0 7.0 0.00 0.00 0.00 60 1020.9
20260904065403 74 21 4.0 7.0 0.00 0.00 0.00 61 1020.9
20260904064718 74 15 3.0 7.0 0.00 0.00 0.00 62 1020.9
20260904063603 73 17 3.0 5.0 0.00 0.00 0.00 63 1020.8
20260904062703 73 354 4.0 6.0 0.00 0.00 0.00 63 1020.7
20260904061803 72 341 4.0 6.0 0.00 0.00 0.00 64 1020.6
20260904061117 72 359 4.0 6.0 0.00 0.00 0.00 65 1020.7
20260904060003 71 14 5.0 8.0 0.00 0.00 0.00 64 1020.7
20260904055403 71 19 5.0 9.0 0.00 0.00 0.00 64 1020.6
20260904054503 71 17 6.0 8.0 0.00 0.00 0.00 65 1020.5
20260904053603 71 9 6.0 9.0 0.00 0.00 0.00 64 1020.6
20260904052703 70 353 5.0 10.0 0.00 0.00 0.00 65 1020.5
20260904051803 69 347 3.0 9.0 0.00 0.00 0.00 68 1020.4
20260904051117 68 14 3.0 7.0 0.00 0.00 0.00 71 1020.3
20260904050003 66 7 2.0 8.0 0.00 0.00 0.00 73 1020.2
20260904045403 66 339 1.0 4.0 0.00 0.00 0.00 73 1020.2
20260904044503 66 334 0.0 2.0 0.00 0.00 0.00 73 1020.1
20260904043603 66 247 1.0 2.0 0.00 0.00 0.00 72 1020.1
20260904042703 66 225 1.0 2.0 0.00 0.00 0.00 72 1020.1
20260904041803 66 228 1.0 3.0 0.00 0.00 0.00 72 1020.1
20260904041118 66 226 1.0 3.0 0.00 0.00 0.00 75 1020.1
20260904040003 66 234 1.0 2.0 0.00 0.00 0.00 74 1019.9
20260904035617 66 234 0.0 2.0 0.00 0.00 0.00 74 1020.1
20260904034503 66 348 1.0 2.0 0.00 0.00 0.00 75 1020.1
20260904033603 66 229 1.0 3.0 0.00 0.00 0.00 74 1020.1
20260904032703 66 231 0.0 2.0 0.00 0.00 0.00 75 1020.2
20260904031803 66 0 0.0 0.0 0.00 0.00 0.00 76 1020.3
20260904030903 66 0 0.0 0.0 0.00 0.00 0.00 76 1020.2
20260904030003 66 0 0.0 0.0 0.00 0.00 0.00 76 1020.3
20260904025617 66 0 0.0 0.0 0.00 0.00 0.00 76 1020.3
20260904024503 66 209 1.0 2.0 0.00 0.00 0.00 75 1020.2
20260904023603 67 206 0.0 3.0 0.00 0.00 0.00 74 1020.3
20260904022703 68 0 0.0 0.0 0.00 0.00 0.00 73 1020.2
20260904021803 69 0 0.0 0.0 0.00 0.00 0.00 72 1020.2
20260904020903 69 228 1.0 4.0 0.00 0.00 0.00 71 1020.2
20260904015403 69 223 1.0 4.0 0.00 0.00 0.00 71 1020.0
20260904014503 68 226 0.0 2.0 0.00 0.00 0.00 73 1020.0
20260904013603 68 0 1.0 0.0 0.00 0.00 0.00 72 1020.0
20260904012703 69 231 1.0 3.0 0.00 0.00 0.00 71 1020.0
20260904011803 70 232 0.0 3.0 0.00 0.00 0.00 70 1020.0
20260904010903 69 250 1.0 2.0 0.00 0.00 0.00 71 1020.1
20260904010003 69 248 0.0 2.0 0.00 0.00 0.00 71 1020.1
20260904005403 69 245 0.0 2.0 0.00 0.00 0.00 72 1020.0
20260904004503 70 244 0.0 1.0 0.00 0.00 0.00 70 1020.1
20260904003817 70 272 0.0 3.0 0.00 0.00 0.00 69 1020.1
20260904002703 72 313 2.0 3.0 0.00 0.00 0.00 67 1020.2
20260904001803 72 259 1.0 4.0 0.00 0.00 0.00 67 1020.2
20260904000903 72 223 1.0 3.0 0.00 0.00 0.00 67 1020.3
20260904000003 72 326 2.0 6.0 0.00 0.00 0.00 66 1020.3
20260903235617 73 333 2.0 6.0 0.00 0.00 0.00 65 1020.3
20260903234503 73 269 2.0 4.0 0.00 0.00 0.00 64 1020.4
20260903233603 72 282 2.0 6.0 0.00 0.00 0.00 65 1020.4
20260903232703 72 233 1.0 6.0 0.00 0.00 0.00 66 1020.5